Theta_e
341 344 352 356 365 368 368 361 354 357 356 351 350 352 352 352 350 351 352 350 340 348 350 350 351 352 352 352 351 352 352 352 352 352 351 351 351 352 352 352 351 350 351 350 350 351 350 353 353
345 353 356 360 368 369 365 353 359 355 352 349 349 351 353 356 353 352 350 345 345 347 350 350 349 350 352 349 347 351 352 352 352 352 351 352 352 352 352 351 351 351 351 350 350 350 351 352 352
352 356 361 366 368 366 359 353 357 353 351 351 351 348 351 357 352 350 350 346 347 349 347 350 347 351 352 351 352 350 352 352 352 352 352 352 352 353 352 352 353 352 352 351 351 350 350 349 342
354 357 360 369 368 359 353 356 352 353 352 351 350 354 350 350 349 351 350 350 347 347 347 350 350 352 352 349 351 351 342 348 351 352 352 352 352 352 353 352 351 349 349 350 350 350 349 344 339
353 358 367 368 366 352 353 356 355 354 353 352 350 354 353 350 349 350 352 350 346 349 343 345 350 351 351 348 344 344 345 348 351 352 352 351 350 346 344 346 348 349 348 348 349 349 345 342 340
361 358 368 369 362 356 357 356 355 354 353 352 351 351 351 350 351 352 351 350 345 347 347 347 349 344 345 347 346 347 350 351 347 345 346 345 344 341 340 342 343 345 343 341 344 349 341 342 339
363 364 364 368 365 362 359 355 355 354 354 353 348 353 349 351 351 352 351 346 342 346 346 348 347 346 347 350 346 339 342 343 342 342 342 343 344 346 347 347 349 349 345 342 342 347 343 339 337
360 361 364 365 363 361 357 352 353 352 354 347 346 351 352 348 352 351 349 343 342 346 344 343 344 343 339 342 341 342 344 344 344 344 345 346 348 351 348 345 348 351 348 343 343 343 338 339 344
356 365 369 364 366 364 352 354 352 350 351 348 348 346 344 346 351 350 350 348 348 345 340 334 334 337 333 336 340 345 346 345 346 347 348 348 348 349 349 346 348 349 350 349 349 348 338 340 342
357 359 361 358 354 361 360 355 353 353 352 350 348 345 342 347 345 346 344 345 349 349 343 340 339 336 336 340 343 345 346 347 349 349 350 350 349 349 348 344 345 346 345 339 341 342 342 340 338
351 354 352 355 350 356 360 360 356 353 353 349 349 345 341 341 342 342 343 346 350 348 345 344 344 343 345 345 350 351 346 341 345 349 349 347 347 345 345 344 343 344 345 340 338 340 341 342 344
353 349 349 350 356 359 362 359 360 358 351 346 345 342 341 341 340 339 339 344 350 349 345 345 345 346 348 349 351 349 348 348 348 343 347 348 348 346 341 338 342 346 346 347 344 343 343 344 344
352 348 350 352 356 358 357 358 359 358 349 345 344 342 341 340 341 340 341 343 348 345 345 345 346 346 349 351 352 351 352 351 347 347 341 345 342 344 344 335 342 342 341 347 349 349 349 349 347
352 353 351 351 355 355 361 359 355 357 351 347 345 342 340 340 341 340 340 341 342 343 343 346 347 349 349 349 351 352 352 349 350 349 346 347 351 347 345 344 346 345 344 345 347 349 349 349 350
349 356 357 354 354 355 353 358 361 353 352 349 345 343 341 340 340 340 340 339 342 344 346 348 349 350 349 350 350 351 351 347 350 352 349 352 351 348 348 347 348 347 346 348 347 345 344 346 349
344 347 354 357 354 352 354 362 355 351 355 354 346 344 343 339 338 339 339 341 344 347 349 351 351 350 349 350 351 349 349 352 352 353 352 355 355 350 350 348 349 350 351 351 351 351 346 348 348
333 343 356 356 353 353 353 361 350 352 354 353 347 345 344 341 337 339 339 344 346 348 351 351 349 350 350 349 351 353 353 353 350 349 354 354 348 347 349 347 351 352 352 349 349 349 351 348 348
344 355 356 356 355 352 353 352 352 350 348 348 352 345 344 341 338 338 339 344 345 348 350 349 348 346 345 346 353 354 354 350 353 352 352 353 351 351 352 343 341 344 347 348 347 350 350 348 347
335 335 351 351 354 351 352 350 347 349 347 348 354 350 345 341 338 339 338 345 346 349 349 350 351 346 347 349 351 353 354 352 353 352 350 354 354 355 351 349 346 341 344 348 346 346 346 348 347
335 338 351 353 353 348 351 352 347 344 349 347 353 355 349 341 339 338 338 347 349 349 350 350 351 343 346 348 352 350 354 353 354 352 350 353 355 355 354 352 346 341 344 347 343 343 343 340 346
336 333 348 353 354 349 351 351 350 347 347 353 353 353 352 343 340 337 339 348 348 348 350 353 351 347 348 349 353 355 356 354 353 350 352 354 356 356 356 358 358 346 338 344 341 339 336 332 335
333 333 340 353 352 353 347 350 354 349 348 351 352 354 347 350 341 338 339 347 348 347 349 354 350 349 346 349 352 353 356 354 352 350 350 355 355 354 354 356 355 354 336 341 340 338 335 331 330
335 332 335 350 349 347 355 351 345 350 351 348 347 353 347 348 343 341 338 344 347 346 349 354 351 350 348 350 350 351 355 352 351 349 350 355 358 358 356 353 354 354 350 338 336 335 336 336 335
326 328 331 339 339 341 339 347 345 354 348 347 346 347 351 349 346 343 337 340 346 347 349 355 352 350 349 349 352 355 355 352 351 350 351 354 357 356 358 356 357 356 350 349 334 333 333 333 333
322 323 327 338 343 339 333 346 342 347 347 348 348 347 348 350 347 345 338 338 343 348 350 355 353 352 351 349 353 354 358 355 353 351 352 351 354 356 358 358 358 358 353 347 338 331 332 330 331
319 321 325 334 343 341 334 339 336 338 344 347 348 347 350 351 349 346 342 339 343 347 350 354 354 352 352 351 351 353 356 355 355 353 353 351 350 356 358 357 358 356 357 352 345 344 341 335 328
317 321 322 328 330 334 333 333 339 343 343 343 349 348 352 352 351 347 346 341 342 346 349 352 355 353 352 350 349 352 355 359 355 354 353 353 351 349 356 357 358 359 359 356 352 347 349 347 344
316 318 322 321 331 338 334 337 343 342 345 346 346 348 353 353 351 348 346 346 342 344 348 351 353 354 352 348 347 350 353 357 356 355 354 354 354 356 354 356 356 362 361 358 358 356 358 356 352
315 315 321 321 326 331 332 331 331 337 335 343 345 345 345 351 349 349 348 347 347 344 346 350 352 353 355 351 346 349 352 355 356 353 357 356 354 353 357 355 355 359 361 360 360 357 358 360 359
315 315 315 320 325 328 328 330 329 335 335 339 347 349 350 351 351 344 348 348 348 345 344 347 351 351 354 353 349 347 350 352 354 354 353 356 357 354 358 356 355 357 358 361 360 360 358 359 360
Wind_Speed
14 12 6 2 1 1 2 5 13 8 6 7 13 13 11 9 2 5 21 21 27 23 19 18 17 15 15 15 14 15 16 15 15 15 15 15 16 16 15 15 14 15 16 16 16 14 14 14 16
16 10 3 2 1 2 1 9 16 14 14 17 14 10 10 6 8 15 15 27 26 24 20 20 17 18 16 17 16 15 16 16 15 15 15 15 15 14 14 13 13 14 15 15 14 13 13 14 15
11 7 1 2 3 2 7 12 17 15 10 4 6 11 6 10 11 11 28 29 26 23 21 20 17 18 16 16 15 15 15 15 16 15 14 14 15 14 12 12 11 11 12 12 13 13 13 14 17
2 1 2 2 4 4 8 16 20 16 11 10 15 8 6 14 8 21 33 30 27 24 21 19 18 17 16 15 15 14 14 15 14 13 12 13 12 11 10 10 10 11 11 11 11 12 13 14 19
3 0 2 2 1 8 12 14 12 15 9 14 12 7 4 14 31 34 34 30 29 25 20 20 19 17 16 15 14 14 14 14 14 12 12 11 10 9 9 9 8 9 10 9 10 11 13 16 18
1 1 2 2 2 8 10 14 18 18 18 18 16 12 3 28 33 31 33 28 27 27 22 20 17 16 16 15 13 13 12 12 12 12 11 10 8 6 6 7 8 8 9 9 9 11 11 14 18
2 2 6 7 1 8 9 11 13 18 13 9 13 11 7 19 28 32 30 26 27 25 23 20 16 16 15 14 13 13 12 12 11 10 10 9 7 4 3 4 5 7 8 9 10 11 12 15 17
4 3 2 4 2 3 10 3 15 16 7 16 17 6 11 15 32 33 28 28 27 24 22 19 17 17 15 16 15 13 12 10 10 9 7 8 7 5 4 3 5 7 8 8 11 12 14 18 20
6 4 1 3 2 4 3 10 10 8 15 9 4 14 16 36 34 31 26 24 26 23 20 18 17 17 15 15 14 12 10 9 7 7 6 5 6 7 7 7 6 7 10 10 11 12 16 19 18
4 4 11 13 6 3 8 7 13 8 14 12 19 13 28 35 31 27 22 20 23 24 22 20 19 18 15 14 13 12 11 11 8 6 7 9 8 9 11 10 9 11 12 14 13 16 17 17 16
5 5 6 12 5 7 7 10 13 16 12 24 23 20 21 27 25 24 22 27 28 26 23 20 19 16 15 13 13 12 10 10 8 11 10 12 11 12 13 11 9 11 14 17 17 18 19 17 17
2 8 10 9 8 8 4 13 6 11 7 20 22 19 17 17 17 18 23 26 27 27 24 20 17 15 13 9 12 10 9 10 10 10 10 14 16 11 12 5 11 9 13 15 16 17 14 15 14
6 0 8 14 7 11 14 4 7 10 13 17 18 18 14 12 17 24 26 26 33 26 26 21 18 15 11 14 9 11 9 8 11 11 12 8 12 10 11 7 11 11 12 14 15 14 15 13 12
12 21 17 16 14 10 6 5 8 6 9 14 17 16 13 12 18 21 23 26 29 29 28 25 21 16 13 13 11 12 11 9 9 12 11 7 6 6 10 10 13 13 12 11 12 14 11 9 11
14 13 7 4 8 6 8 6 6 10 13 10 15 15 13 13 18 23 27 27 26 31 30 26 21 15 15 12 13 13 13 12 12 11 12 10 5 8 11 13 10 10 11 9 8 9 10 11 9
12 4 5 3 3 1 6 4 8 5 9 7 15 15 14 12 18 26 32 30 33 36 31 27 23 18 15 13 11 7 16 16 13 12 11 10 9 11 15 12 11 8 8 7 6 8 11 11 13
5 2 6 3 1 2 5 6 6 6 4 10 12 16 14 9 11 26 31 36 40 35 30 26 24 20 19 15 11 9 11 17 15 14 10 9 13 13 16 16 12 11 8 6 5 8 12 10 10
3 4 5 6 7 5 2 3 15 15 14 15 12 13 14 13 14 26 31 38 40 35 30 25 24 21 21 18 10 6 17 17 17 17 12 10 14 10 10 13 13 13 12 9 11 9 7 6 9
6 4 4 3 4 3 5 1 1 17 13 9 7 8 12 13 16 28 32 38 39 36 31 28 26 24 24 17 12 13 15 21 16 15 13 13 7 8 9 12 10 7 13 10 10 11 9 10 16
9 1 2 3 8 1 2 7 6 8 8 11 9 8 12 11 14 22 29 33 37 37 35 30 27 24 23 17 15 11 18 28 23 18 15 13 7 11 11 11 10 10 15 11 9 9 7 6 5
12 5 7 6 10 2 5 6 6 4 5 9 7 7 5 15 18 17 24 30 33 35 37 31 32 25 23 22 15 9 22 27 21 17 15 12 10 12 11 9 9 8 12 13 8 7 8 7 5
7 7 7 13 10 4 7 3 4 7 8 9 9 13 9 10 19 16 23 28 32 35 38 32 35 28 28 25 17 12 22 23 23 21 19 17 14 14 13 10 9 9 9 14 11 9 9 9 10
15 7 8 12 6 4 3 1 5 5 8 13 10 10 10 10 19 20 24 32 33 35 37 35 36 29 29 24 20 12 19 29 23 19 19 18 14 15 13 9 11 11 10 11 13 10 8 9 10
12 6 0 5 5 3 8 5 5 6 19 17 15 14 13 10 18 19 29 33 32 35 36 38 38 32 29 27 22 15 20 25 23 22 19 21 17 11 16 10 10 9 10 10 11 12 11 9 7
2 6 3 1 2 6 8 5 13 18 18 19 22 22 16 10 15 19 19 26 31 34 34 38 42 39 34 30 27 21 14 21 25 25 23 21 21 15 17 15 12 11 9 9 11 13 12 12 9
5 9 6 6 5 11 9 7 9 22 13 15 19 20 20 16 15 21 22 32 36 38 37 37 39 40 40 35 32 26 17 16 18 26 27 25 25 23 21 18 15 13 11 11 11 12 11 9 8
5 5 9 4 1 2 4 6 5 3 9 8 16 10 17 20 21 22 24 33 35 39 40 39 39 39 43 39 35 30 22 16 19 26 27 26 23 21 21 21 20 17 14 11 11 11 10 8 7
9 6 1 2 5 5 4 2 5 2 2 3 10 10 18 21 22 22 20 31 36 39 40 39 40 39 43 41 39 35 30 22 19 18 28 24 20 17 27 25 22 21 18 15 13 14 12 11 9
2 3 2 4 4 6 3 6 7 10 6 9 9 8 5 6 4 12 18 32 32 33 36 37 37 36 36 41 41 39 35 28 23 22 22 22 21 14 19 30 25 22 21 19 17 15 14 16 15
4 7 8 5 6 2 5 5 6 11 12 17 14 10 11 3 5 10 18 28 29 32 35 36 36 34 36 38 40 41 39 34 29 28 26 22 17 15 14 27 27 24 23 22 22 20 19 18 18
Wind_Direction
150 139 139 278 327 64 291 72 107 95 56 67 85 101 101 33 79 149 143 152 139 136 134 127 124 124 123 121 119 114 113 112 113 113 117 116 114 112 112 107 105 104 103 102 103 108 112 109 106
143 128 32 333 209 147 1 108 93 106 124 105 79 87 55 76 61 116 113 142 140 136 135 130 131 123 124 122 119 117 117 115 117 113 112 114 114 113 109 109 110 108 106 107 111 113 111 113 118
146 126 84 354 292 186 123 121 119 128 148 94 110 77 74 118 113 132 142 142 137 137 133 131 130 126 124 125 123 124 119 116 114 116 116 119 116 118 119 116 112 110 109 114 117 117 119 119 119
152 169 72 209 213 246 116 112 115 114 97 67 117 69 68 126 115 138 141 142 134 137 135 136 131 132 129 125 122 124 120 123 120 118 117 115 116 123 124 121 116 109 110 122 120 124 126 123 123
302 240 233 320 303 120 115 123 106 90 86 94 101 108 74 107 130 139 145 144 137 139 135 137 134 133 133 129 133 129 124 123 122 121 124 126 131 136 131 130 124 117 119 126 127 134 131 133 132
3 59 34 266 166 103 106 108 102 96 99 97 92 104 89 134 135 140 146 146 142 140 138 136 138 139 140 139 132 130 129 126 127 131 133 133 134 142 140 134 129 126 128 141 144 150 140 137 139
42 69 345 325 274 94 104 106 115 121 124 108 128 119 138 146 140 145 145 141 143 140 140 142 147 143 145 139 134 136 132 131 133 131 130 128 127 125 127 133 139 136 134 139 144 156 158 145 142
109 52 273 318 55 115 149 103 136 133 103 129 134 146 164 154 141 143 142 140 143 142 141 145 153 151 150 145 141 137 136 138 133 130 133 132 123 116 101 102 113 113 115 125 138 153 157 148 143
161 111 75 267 299 321 92 133 155 125 133 160 164 146 141 146 139 141 134 140 144 147 147 150 156 152 153 147 146 150 147 141 130 136 131 119 119 120 120 104 96 99 106 107 124 136 148 147 147
162 148 191 212 177 202 311 321 118 122 150 114 120 135 125 138 140 141 148 151 149 153 154 149 151 153 150 146 145 148 150 147 144 144 121 117 121 125 125 126 130 118 108 107 117 135 145 154 156
183 191 170 204 191 84 349 343 335 126 146 147 148 146 136 138 144 152 154 153 162 157 155 155 153 156 151 150 146 147 152 143 120 108 143 151 143 147 144 136 141 136 124 119 127 136 141 151 151
216 183 168 171 126 115 18 312 9 344 177 152 143 144 145 140 151 154 153 156 166 171 161 159 157 166 161 165 150 138 149 141 139 128 147 137 144 154 157 154 158 162 154 145 146 145 152 157 157
215 349 148 123 117 113 130 287 341 14 157 141 138 145 154 146 158 157 162 160 166 175 172 166 160 171 174 167 169 175 168 164 151 130 138 113 169 158 171 133 152 180 175 166 167 169 176 187 194
101 97 105 104 111 75 155 86 36 357 13 144 155 152 158 171 163 164 172 167 165 175 170 173 165 170 159 170 163 174 186 169 136 126 141 135 109 150 150 140 163 163 168 165 169 183 188 206 211
104 84 83 32 152 126 161 119 103 330 348 198 168 159 168 188 165 163 177 173 170 166 163 163 161 173 176 159 168 183 193 174 152 133 129 142 120 144 153 157 158 161 173 167 153 184 190 204 190
155 114 79 223 313 330 248 183 101 71 307 258 179 174 179 192 173 169 176 167 165 158 157 156 157 166 183 158 150 184 187 187 156 152 148 142 139 152 167 167 179 170 165 171 204 206 201 185 185
347 166 128 239 344 144 244 128 159 149 240 284 221 186 185 184 167 170 169 159 159 161 158 159 166 170 183 179 168 166 186 182 152 144 126 105 134 138 141 155 127 154 167 144 139 189 211 210 209
245 142 164 194 174 208 203 116 155 170 186 240 234 201 188 178 174 169 164 163 163 165 164 165 171 179 185 182 179 171 181 176 157 153 146 131 132 135 143 143 140 149 153 137 120 116 141 158 178
223 252 194 113 187 100 212 113 124 195 196 222 196 204 203 176 174 167 164 165 165 167 168 171 176 170 174 185 178 160 163 177 171 163 149 142 138 162 143 151 173 181 173 157 133 120 108 89 136
259 355 71 47 173 70 221 252 257 192 198 191 183 204 190 170 166 168 164 163 167 170 171 177 180 175 181 187 179 165 172 178 172 160 154 156 151 157 148 147 142 162 171 164 146 142 125 96 126
274 168 184 189 184 42 103 297 244 240 190 177 201 187 218 177 173 171 165 167 170 172 174 177 181 179 184 185 184 138 165 167 167 166 163 155 151 154 167 160 156 144 178 174 161 162 169 160 146
267 243 217 143 139 217 162 253 216 217 236 209 192 203 194 196 179 174 170 170 172 176 177 179 180 183 191 194 195 180 171 172 174 173 167 152 152 163 173 174 178 163 171 180 180 180 176 175 171
247 247 173 171 147 104 217 58 262 200 203 241 213 209 203 209 186 178 175 173 176 176 178 179 181 190 197 198 197 204 188 184 180 175 170 170 181 185 170 171 168 177 180 181 192 190 189 191 201
271 292 162 164 132 233 244 160 259 201 212 202 229 222 219 214 190 184 177 174 175 179 179 181 185 194 203 198 201 198 197 189 182 178 177 183 185 191 185 181 182 190 195 199 194 195 194 193 196
223 70 321 89 30 236 185 207 232 207 226 204 192 217 228 206 200 184 175 176 177 179 181 182 184 191 202 204 207 210 204 195 190 186 187 191 194 194 187 192 203 201 190 194 195 197 206 210 212
202 156 167 186 163 235 147 229 246 221 210 200 200 200 207 198 203 191 183 181 179 182 183 184 186 189 200 206 209 211 213 190 196 200 197 199 198 197 195 203 209 209 206 200 199 206 203 208 213
285 178 189 164 334 50 224 282 323 23 120 161 184 214 182 197 199 196 188 186 183 183 185 187 188 192 199 202 209 211 212 190 188 197 201 210 209 208 210 208 210 210 210 209 212 206 207 211 219
193 175 242 358 188 198 275 227 189 64 274 357 178 191 195 190 194 194 194 191 187 187 185 187 191 193 199 201 206 209 214 204 197 202 207 215 215 230 223 217 216 215 214 214 222 225 230 238 240
300 192 134 139 152 180 231 262 211 162 197 198 226 139 67 258 240 211 193 196 189 187 184 186 190 192 197 201 205 210 212 215 211 209 212 217 218 233 234 216 217 217 218 222 229 235 237 248 251
182 227 176 178 253 217 148 273 297 173 153 93 70 70 48 44 310 259 200 193 188 181 186 185 187 193 197 201 204 209 213 217 219 221 220 222 224 216 228 215 219 221 226 228 232 239 241 243 251